Starlink 6354

operational
NORAD ID: 56784 Int'l Des: 2023-078 Owner: SPXS Country: US Constellation: starlink
LEOCIRCULAR

Über Starlink 6354

Beschreibung wird geladen...

Live-Position

3D-Globus wird geladen...

Nächste Überflüge

Höhenverlauf

Altitude vs Time

uPlot chart will show altitude changes over time

Zweizeiliger Elementsatz

1 56784U 23078T 25352.92848473 -.00003075 00000-0 -24984-3 0 9999
2 56784 69.9992 168.1880 0002737 274.7276 85.3571 14.98363758141078
Epoch: 18. Dez. 2025 • Age: 5 hours

Aktueller Status

Höhe 592.3 km
Geschwindigkeit 7.56 km/s
Subsatellitenpunkt -58.86°S, 0.96°E
Startdatum 31. Mai 2023
Alter 2.5 years
Typ internet

Technische Details

Klassifizierung Payload
Masse 305.00 kg
Trockenmasse 290.00 kg
Gesamtmasse 305.00 kg
Länge 0.20 m
Durchmesser 2.80 m
Spannweite 9.00 m
Form Box + pan
Hersteller SPXS
Bus-Typ Starlink
Phasenstatus In Orbit
Besitzer/Staat SPXS/US

Große Konstellationen

Loading constellations...